Location: Newark
(45.2500°N, 7.5833°E)
Time: 02:05:44
(UTC+00:00)

Vanguard 3 - Pass Details

Date: 01 February 2020
Orbit: 508 x 3263 km, 33.3° (Epoch: 25 February)

Event Time Altitude Azimuth Distance (km) Brightness Sun altitude
Rises 18:09:56 0° 265° (W) 6,921 13.7 -16.7°
Reaches altitude 10° 18:14:29 10° 262° (W) 6,069 12.9 -17.5°
Maximum altitude 18:33:19 54° 193° (SSW) 3,597 10.4 -20.8°
Enters shadow 18:46:37 17° 126° (SE) 4,697 10.5 -23.1°
Drops below altitude 10° 18:48:55 10° 123° (ESE) 5,113 - -23.5°
Sets 18:52:22 0° 118° (ESE) 5,813 - -24.1°
